Location: Unspecified
(35.7250°N, 0.0000°E)
Time: 13:36:51
(UTC+00:00)

Vanguard 1 - Pass Details

Date: 30 June 2019
Orbit: 655 x 3829 km, 34.2° (Epoch: 19 August)

Event Time Altitude Azimuth Distance (km) Brightness Sun altitude
Rises 06:15:17 0° 285° (WNW) 6,699 13.8 15.5°
Reaches altitude 10° 06:20:40 10° 281° (W) 5,166 13.3 16.6°
Maximum altitude 06:32:53 44° 215° (SW) 2,086 11.6 19.0°
Drops below altitude 10° 06:39:47 10° 145° (SE) 2,958 12.9 20.3°
Sets 06:42:03 0° 138° (SE) 3,662 13.4 20.8°
